Martinsville, VA

4:27 AM EDT on March 28, 2017 (GMT -0400)
Blue Ridge

Weather History for KMTV - July, 2013

Change the Weather History Date:

Tuesday, July 9, 2013

  Actual Average (KINT) Record (KINT)
Temperature  
Mean Temperature 79 °F -  
Max Temperature 90 °F 84 °F 100 °F (1977)
Min Temperature 68 °F 67 °F 53 °F (1972)
Cooling Degree Days 14    
Growing Degree Days 29 (Base 50)    
Moisture  
Dew Point 71 °F    
Average Humidity 81    
Maximum Humidity 97    
Minimum Humidity 48    
Precipitation  
Precipitation 0.00 in - - ()
Sea Level Pressure  
Sea Level Pressure 30.16 in    
Wind  
Wind Speed 1 mph (South)    
Max Wind Speed 6 mph    
Max Gust Speed -    
Visibility 8 miles    
Events Thunderstorm    
Averages and records for this station are not official NWS values.
T = Trace of Precipitation, MM = Missing Value Source: NWS Daily Summary

Daily Weather History Graph

Daily Weather History Graph

Search for Another Location

Airport or City:

Trip Planner

Search our weather history database for the weather conditions in past years. The results will help you decide how hot, cold, wet, or windy it might be!

Date:

Astronomy

Jul. 09, 2013 Rise Set
Actual Time 6:09 AM EDT 8:40 PM EDT
Civil Twilight 5:39 AM EDT 9:11 PM EDT
Nautical Twilight 5:02 AM EDT 9:48 PM EDT
Astronomical Twilight 4:20 AM EDT 10:29 PM EDT
Moon 7:28 AM EDT (7/9) 9:21 PM EDT (7/9)
Length of Visible Light 15h 31m
Length of Day
14h 31m
New Moon, 2% of the Moon is Illuminated
Jul 9
New Moon
Jul 15
First Quarter
Jul 22
Full
Jul 29
Last Quarter
Aug 6
New

Hourly Weather History & Observations

Time (EDT) Temp. Heat Index Dew Point Humidity Pressure Visibility Wind Dir Wind Speed Gust Speed Precip Events Conditions
12:15 AM 70.5 °F - 69.6 °F 97% 30.20 in 5.0 mi SSE 3.5 mph - N/A   Clear
12:35 AM 69.8 °F - 68.7 °F 96% 30.20 in 5.0 mi Calm Calm - N/A   Clear
12:55 AM 69.8 °F - 68.7 °F 96% 30.20 in 5.0 mi Calm Calm - N/A   Clear
1:15 AM 69.8 °F - 68.9 °F 97% 30.19 in 7.0 mi Calm Calm - N/A   Clear
1:35 AM 69.4 °F - 68.4 °F 96% 30.19 in 4.0 mi Calm Calm - N/A   Clear
1:55 AM 69.3 °F - 68.4 °F 97% 30.19 in 5.0 mi Calm Calm - N/A   Clear
2:15 AM 69.8 °F - 68.9 °F 97% 30.18 in 5.0 mi Calm Calm - N/A   Clear
2:35 AM 69.8 °F - 68.9 °F 97% 30.19 in 5.0 mi Calm Calm - N/A   Clear
2:55 AM 69.8 °F - 68.9 °F 97% 30.19 in 5.0 mi Calm Calm - N/A   Clear
3:15 AM 69.8 °F - 68.9 °F 97% 30.18 in 7.0 mi Calm Calm - N/A   Clear
3:35 AM 69.6 °F - 68.7 °F 97% 30.18 in 5.0 mi Calm Calm - N/A   Scattered Clouds
3:55 AM 69.1 °F - 68.2 °F 97% 30.18 in 5.0 mi Calm Calm - N/A   Scattered Clouds
4:15 AM 69.1 °F - 68.2 °F 97% 30.18 in 5.0 mi Calm Calm - N/A   Scattered Clouds
4:35 AM 68.5 °F - 67.6 °F 97% 30.18 in 4.0 mi Calm Calm - N/A   Clear
4:55 AM 68.9 °F - 68.0 °F 97% 30.18 in 5.0 mi Calm Calm - N/A   Clear
5:15 AM 68.9 °F - 68.0 °F 97% 30.17 in 5.0 mi Calm Calm - N/A   Clear
5:35 AM 69.4 °F - 68.5 °F 97% 30.18 in 7.0 mi Calm Calm - N/A   Clear
5:55 AM 68.9 °F - 68.0 °F 97% 30.18 in 5.0 mi Calm Calm - N/A   Clear
6:15 AM 68.9 °F - 68.0 °F 97% 30.18 in 5.0 mi Calm Calm - N/A   Clear
6:35 AM 69.8 °F - 68.9 °F 97% 30.18 in 7.0 mi Calm Calm - N/A   Scattered Clouds
6:55 AM 69.8 °F - 68.9 °F 97% 30.18 in 5.0 mi Calm Calm - N/A   Scattered Clouds
7:15 AM 69.8 °F - 68.9 °F 97% 30.18 in 4.0 mi Calm Calm - N/A   Scattered Clouds
7:35 AM 70.5 °F - 69.6 °F 97% 30.18 in 5.0 mi Calm Calm - N/A   Clear
7:55 AM 71.2 °F - 70.2 °F 96% 30.18 in 7.0 mi Calm Calm - N/A   Clear
8:15 AM 73.2 °F - 71.6 °F 95% 30.18 in 10.0 mi Calm Calm - N/A   Scattered Clouds
8:35 AM 74.3 °F - 71.8 °F 92% 30.19 in 10.0 mi Calm Calm - N/A   Scattered Clouds
8:55 AM 76.6 °F - 72.3 °F 86% 30.19 in 10.0 mi Calm Calm - N/A   Clear
9:15 AM 77.9 °F - 72.7 °F 84% 30.19 in 10.0 mi ESE 3.5 mph - N/A   Scattered Clouds
9:35 AM 78.3 °F - 72.7 °F 83% 30.20 in 10.0 mi SE 3.5 mph - N/A   Scattered Clouds
9:55 AM 79.9 °F - 73.6 °F 81% 30.20 in 10.0 mi Calm Calm - N/A   Scattered Clouds
10:15 AM 82.0 °F 87.7 °F 73.4 °F 75% 30.19 in 10.0 mi Calm Calm - N/A   Scattered Clouds
10:35 AM 83.7 °F 91.0 °F 74.5 °F 74% 30.19 in 10.0 mi Calm Calm - N/A   Scattered Clouds
10:55 AM 83.1 °F 89.2 °F 73.4 °F 72% 30.20 in 10.0 mi Calm Calm - N/A   Clear
11:15 AM 84.6 °F 91.0 °F 73.0 °F 68% 30.20 in 10.0 mi NW 3.5 mph - N/A   Clear
11:35 AM 86.4 °F 93.0 °F 72.3 °F 63% 30.19 in 10.0 mi SE 3.5 mph - N/A   Scattered Clouds
11:55 AM 85.8 °F 91.5 °F 71.2 °F 62% 30.20 in 10.0 mi Calm Calm - N/A   Scattered Clouds
12:15 PM 87.4 °F 94.8 °F 72.9 °F 62% 30.19 in 10.0 mi South 3.5 mph - N/A   Scattered Clouds
12:35 PM 85.8 °F 91.8 °F 72.0 °F 63% 30.19 in 10.0 mi Calm Calm - N/A   Mostly Cloudy
12:55 PM 87.8 °F 93.0 °F 70.2 °F 56% 30.20 in 10.0 mi Calm Calm - N/A   Scattered Clouds
1:15 PM 90.0 °F 93.6 °F 68.0 °F 48% 30.19 in 10.0 mi ESE 4.6 mph - N/A   Clear
1:35 PM 88.9 °F 93.0 °F 68.9 °F 51% 30.18 in 10.0 mi Calm Calm - N/A   Scattered Clouds
1:55 PM 88.5 °F 95.3 °F 72.1 °F 58% 30.17 in 10.0 mi SSE 3.5 mph - N/A   Mostly Cloudy
2:15 PM 89.4 °F 95.3 °F 70.9 °F 54% 30.16 in 10.0 mi SE 4.6 mph - N/A   Scattered Clouds
2:35 PM 89.6 °F 96.2 °F 71.6 °F 55% 30.16 in 10.0 mi SSE 4.6 mph - N/A   Mostly Cloudy
2:55 PM 89.8 °F 97.5 °F 72.9 °F 57% 30.15 in 10.0 mi South 5.8 mph - N/A   Mostly Cloudy
3:15 PM 88.9 °F 94.7 °F 70.9 °F 55% 30.14 in 10.0 mi SW 4.6 mph - N/A   Clear
3:35 PM 90.1 °F 97.3 °F 71.8 °F 55% 30.14 in 10.0 mi South 3.5 mph - N/A   Clear
3:55 PM 89.6 °F 96.6 °F 71.8 °F 56% 30.14 in 10.0 mi South 3.5 mph - N/A   Scattered Clouds
4:15 PM 90.7 °F 97.4 °F 71.4 °F 53% 30.14 in 10.0 mi South 3.5 mph - N/A   Scattered Clouds
4:35 PM 90.7 °F 97.9 °F 72.1 °F 54% 30.12 in 10.0 mi South 3.5 mph - N/A   Scattered Clouds
4:55 PM 88.9 °F 97.1 °F 73.4 °F 60% 30.11 in 10.0 mi Calm Calm - N/A   Scattered Clouds
5:15 PM 88.2 °F 95.5 °F 72.9 °F 60% 30.11 in 10.0 mi Calm Calm - N/A   Scattered Clouds
5:35 PM 90.0 °F 97.4 °F 72.3 °F 56% 30.11 in 10.0 mi SW 3.5 mph - N/A   Scattered Clouds
5:55 PM 88.9 °F 96.1 °F 72.1 °F 58% 30.10 in 10.0 mi SW 3.5 mph - N/A   Scattered Clouds
6:15 PM 88.0 °F 92.9 °F 70.2 °F 55% 30.10 in 10.0 mi SW 3.5 mph - N/A   Clear
6:35 PM 87.6 °F 93.9 °F 71.6 °F 59% 30.10 in 10.0 mi Calm Calm - N/A   Clear
6:55 PM 88.0 °F 94.2 °F 71.6 °F 58% 30.10 in 10.0 mi Calm Calm - N/A   Clear
7:15 PM 84.6 °F 92.4 °F 74.5 °F 72% 30.11 in 10.0 mi Calm Calm - N/A   Clear
7:35 PM 80.8 °F 85.9 °F 73.9 °F 80% 30.11 in 10.0 mi Calm Calm - N/A   Clear
7:55 PM 79.2 °F - 75.0 °F 87% 30.12 in 10.0 mi Calm Calm - N/A   Clear
8:15 PM 78.4 °F - 74.7 °F 88% 30.11 in 10.0 mi Calm Calm - N/A   Clear
8:35 PM 77.0 °F - 74.1 °F 91% 30.12 in 10.0 mi Calm Calm - N/A   Clear
8:55 PM 76.8 °F - 73.8 °F 90% 30.13 in 10.0 mi Calm Calm - N/A   Clear
9:15 PM 76.5 °F - 74.5 °F 94% 30.13 in 10.0 mi Calm Calm - N/A   Clear
9:35 PM 75.2 °F - 73.4 °F 94% 30.13 in 10.0 mi Calm Calm - N/A Thunderstorm Clear
9:55 PM 74.8 °F - 73.0 °F 94% 30.14 in 10.0 mi Calm Calm - N/A   Clear
10:15 PM 73.9 °F - 72.5 °F 95% 30.14 in 10.0 mi Calm Calm - N/A   Clear
10:35 PM 73.2 °F - 71.8 °F 95% 30.14 in 7.0 mi Calm Calm - N/A   Clear
10:55 PM 73.4 °F - 72.1 °F 96% 30.14 in 10.0 mi Calm Calm - N/A   Clear
11:15 PM 73.0 °F - 71.6 °F 95% 30.14 in 7.0 mi Calm Calm - N/A   Clear
11:35 PM 74.8 °F - 72.9 °F 94% 30.14 in 10.0 mi Calm Calm - N/A   Clear
11:55 PM 74.3 °F - 72.5 °F 94% 30.14 in 10.0 mi Calm Calm - N/A   Clear